User: anonymous   Login
Location: Berlise
(49.6641°N, 4.1077°E)
Time: 16:54:06
(UTC+00:00)
Language:

Cosmos 2084 Rocket - Orbit

View from above orbital plane
View from above orbital plane
View from above satellite
View from above satellite

Ground track
Ground track

The orbit data is extracted from the following two-line orbital elements,

1 20666U 90055D   21110.51997649  .00000137  00000-0  30530-4 0  9990
2 20666  62.7836 138.4914 0090732  28.2752 332.3224 14.92470004670598
Epoch (UTC): 20 April 2021 12:28:45
Eccentricity: 0.0090732
inclination: 62.7836°
perigee height: 527 km
apogee height: 653 km
right ascension of ascending node: 138.4914°
argument of perigee: 28.2752°
revolutions per day: 14.92470004
mean anomaly at epoch: 332.3224°
orbit number at epoch: 67059

The dashed part of the orbit path shows where the satellite is in the earth's shadow,  

DLR